Regional Weather Roundup
Issued by NWS Wakefield, VA

Home | Current Version | Previous Version | Graphics & Text | Print | Product List | Glossary On
Versions: 1 2 3 4 5 6 7 8 9 10 11 12 13 14 15 16 17 18 19 20 21 22 23 24 25 26 27 28 29 30 31 32 33 34 35 36 37 38 39 40 41 42 43 44 45 46 47 48 49 50
000
ASUS41 KAKQ 090310
RWRAKQ

REGIONAL WEATHER ROUNDUP
NATIONAL WEATHER SERVICE WAKEFIELD VA
1100 PM EDT TUE JUL 08 2014

Note: "fair" indicates few or no clouds below 12,000 feet with no
significant weather and/or obstructions to visibility. * = Denotes
station may not report precipitation (e.g., rain,snow,etc.),
thunder or fog.

VAZ042-051-052>054-056-090400-
NORTHERN VIRGINIA

CITY           SKY/WX    TMP DP  RH WIND       PRES   REMARKS
WASH NATIONAL  CLOUDY    75  68  78 SW7       29.85S
DULLES         CLOUDY    69  67  93 S3        29.85F
FORT BELVOIR   CLOUDY    72  70  94 CALM      29.85F FOG
QUANTICO       CLOUDY    74  69  85 W3        29.85F
FREDERICKSBRG* CLOUDY    74  74 100 CALM      29.85S
STAFFORD*        N/A     71  71 100 CALM      29.89F FOG
WARRENTON      CLOUDY    71  71 100 CALM      29.85S
CULPEPER*      CLOUDY   111 N/A N/A CALM      29.87S
MANASSAS*      CLOUDY    72  72 100 CALM      29.85
LEESBURG*      CLOUDY    70  70 100 CALM      29.86S
WINCHESTER     PTCLDY    70  64  83 S5        29.86R
$$

VAZ048-049-060>072-079>083-090400-
CENTRAL AND SOUTH CENTRAL VIRGINIA...AND NORTH CENTRAL NORTH CAROLINA

CITY           SKY/WX    TMP DP  RH WIND       PRES   REMARKS
RICHMOND       LGT RAIN  87  62  43 CALM      29.87R
CHESTERFIELD*  CLOUDY    84  57  39 W8        29.92R
HANOVER        HVY RAIN  76  69  79 VRB6      29.90R
TAPPAHANNOCK*  NOT AVBL
CHARLOTTSVILLE CLOUDY    70  69  97 S5        29.89R
ORANGE*        CLOUDY    70  68  94 SW5       29.88S
LOUISA*        CLOUDY    72  70  94 S5        29.88R
FARMVILLE*     LGT RAIN  73  72  94 CALM      29.90R
SOUTH HILL*    MOCLDY    84  63  48 S10       29.96S
ROANOKE RAPIDS MOCLDY    82  72  69 S9        29.93R
RALEIGH        MOCLDY    86  62  44 W8        29.97R
$$

VAZ088>098-090400-
SOUTHEAST VIRGINIA

CITY           SKY/WX    TMP DP  RH WIND       PRES   REMARKS
NORFOLK        CLEAR     83  69  62 SW22G28   29.90R
VIRGINIA BEACH CLEAR     83  69  62 SW17G23   29.91R
NORFOLK NAVAL  CLEAR     85  71  63 S14G28    29.92R
WEST POINT*    MOCLDY    87  67  52 W3        29.89R
NEWPORT NEWS   PTCLDY    88  72  58 S15G29    29.89S
LANGLEY AFB    PTCLDY    84  73  69 S17G29    29.89R
FORT EUSTIS    PTCLDY    84  74  72 S14G20    29.87S
WILLIAMSBURG*  PTCLDY    86  73  66 S9        29.89F
FRANKLIN*      PTCLDY    82  72  69 S13G18    29.91S
WAKEFIELD      PTCLDY    82  70  66 S5        29.90R
$$

VAZ020-022-025-037-045-090400-
WESTERN AND SOUTHWEST VIRGINIA

CITY           SKY/WX    TMP DP  RH WIND       PRES   REMARKS
STAUNTON*      CLOUDY    70  65  85 CALM      29.93S
HOT SPRINGS VA CLOUDY    63  60  89 W12       30.08R
LYNCHBURG      CLOUDY    70  69  97 SW5       29.94R
DANVILLE       NOT AVBL
MARTINSVILLE   CLOUDY    70  70 100 CALM      29.98F
ROANOKE        CLOUDY    74  65  73 W9        29.96R
BLACKSBURG     MOCLDY    70  68  94 SW7       30.03S
DUBLIN*        PTCLDY    70  67  89 SW7       30.03S
MARION*        CLOUDY    67  66  97 W12       30.08S
HILLSVILLE*    MOCLDY    65  64  96 W3        30.06S
RICHLANDS*     CLOUDY    70  66  87 SW9G18    30.05S
WISE*          CLOUDY    68  68 100 SW8       30.07R
ABINGDON*      CLOUDY    69  68  97 W3        30.05S
$$

MDZ021>025-VAZ099-100-090400-
SOUTHERN MARYLAND AND THE DELMARVA PENINSULA

CITY           SKY/WX    TMP DP  RH WIND       PRES   REMARKS
PATUXENT RIVER RAIN      73  68  84 W10       29.87F
BAY BRIDGE APT   N/A     73  70  88 S8        29.84F
LEONARDTOWN    CLOUDY    72  68  88 SW5       29.88F
DOVER          LGT RAIN  72  72 100 SW9       29.83F
GEORGETOWN     CLOUDY    77  65  66 VRB7      29.89S THUNDER
EASTON         RAIN      75  75 100 SW8       29.90
CAMBRIDGE      CLOUDY    77  70  78 W3        29.87F
SALISBURY      CLOUDY    79  70  73 N10       29.88R THUNDER
OCEAN CITY     MOCLDY    82  74  76 SW15G26   29.85S
WALLOPS ISLAND MOCLDY    81  74  79 SW17G25   29.87S
ACCOMACK*      PTCLDY    82  70  65 SW10      29.87S
$$

NCZ012>017-030>032-090400-
EASTERN NORTH CAROLINA

CITY           SKY/WX    TMP DP  RH WIND       PRES   REMARKS
ELIZABETH CITY CLEAR     81  70  69 S16       29.96R
AHOSKIE*       PTCLDY    82  70  68 S6        29.94R
EDENTON*       CLEAR     81  71  72 SW14      29.96R
CURRITUCK*     CLEAR     82  67  60 S8        29.96R
KILL DEVIL HLS CLEAR     80  73  79 SW12G20   29.97R
MANTEO         CLEAR     80  74  83 SW20      29.98R
CAPE HATTERAS  PTCLDY    81  75  82 SW17G31   30.02R
GOLDSBORO      CLEAR     81  75  83 S9        29.96R
WASHINGTON     CLEAR     81  74  79 S10       29.98R
GREENVILLE     CLEAR     81  72  74 SW12      29.99R
NEW BERN       CLEAR     81  73  76 S9G18     30.01R
WILMINGTON     CLEAR     81  73  76 SW13      30.03R
$$

VAZ048-090400-
ELSEWHERE

CITY           SKY/WX    TMP DP  RH WIND       PRES   REMARKS
HARRISBURG PA  MOCLDY    72  66  81 SW14      29.82R
BALTIMORE      CLOUDY    71  69  93 SW3       29.84S
ANNAPOLIS      CLOUDY    73  69  87 CALM      29.85F
ANDREWS AFB    CLOUDY    72  71  96 SW7       29.85F
WILMINGTON DE  CLOUDY    72  68  87 W8        29.84R
PHILADELPHIA   CLOUDY    74  65  73 SW10      29.82R
WILDWOOD NJ*   CLOUDY    73  68  83 W6        29.89F
ATLANTIC CITY  LGT RAIN  71  67  87 W7        29.86R
HENDERSON NC   PTCLDY    86  58  37 SW15G22   29.94R
GREENSBORO     CLOUDY    72  68  87 SW6       29.97S
ROCKY MOUNT    CLEAR     83  71  67 S14G21    29.95R
FAYETTEVILLE   CLEAR     83  73  72 S10       29.98R
CHARLOTTE      CLOUDY    82  63  52 W6        29.99S
$$

VAZ100-090400-
MARINE

STATION/POSITION TIME  TEMP    WIND        PRES    WAVE   SWELL
                       AIR SEA DIR/SP/G            HT/PER HT/PER
                 (UTC) (F)     (DEG/KT/KT) (MB)    (FT/S) (FT/S)
44066 TX TWR #4  0300   73 69  210/ 21/ 27 1009.8R   7/ 7
CAPE MAY NJ      0300   73 75  320/  7/ 11 1011.0F
LEWES DE         0300   77 66  270/  9/ 11 1010.9S
15NM E FENWICK I 0300   75 72              1010.9R   6/ 7
OCEAN-CITY-INLET 0300   79 67  220/ 19/ 23 1010.9S
WACHAPREAGUE VA  0300   82 84  210/ 13/ 16 1011.5F
THOMAS POINT MD  0300   75 77  220/ 15/ 16 1011.0F
GOOSES REEF MD   0300   75     250/ 12/ 14 1012.0F
COVE POINT MD    0300   75     260/  9/ 13 1011.3F
SOLOMONS ISLAND  0300      80                N/A
BISHOPS HEAD MD  0300   78 81  310/  9/ 15 1012.4F
PINEY POINT MD   0300          340/ 11/ 12   N/A
POTOMAC MD       0300   79     320/ 14/ 16 1011.4F
CAMBRIDGE MD     0300   76 80  250/  3/  7 1011.6F
LEWISETTA VA     0300   78 80  310/  7/  8 1011.8F
RAPPAHANNOCK LGT 0300          190/ 21/ 22 1011.9F
STINGRAY PT      0300   85     210/ 17/ 21 1010.4R
YORK RVR RNG VA  0300   84     220/ 21/ 25 1011.0S
YORKTOWN VA      0300   85 79  200/ 13/ 18 1011.5S
JAMESTOWN VA     0300   82     220/ 12/ 17   N/A
DOMINION TERM VA 0300   83     210/ 19/ 23 1012.2F
KIPTOPEKE VA     0300      83  210/ 18/ 21   N/A
CHES BAY BRIDGE  0300   83 75  190/ 21/ 25 1011.7F
CAPE HENRY VA    0300   84     200/ 13/ 18 1011.6S
CHESAPEAKE LGHT  0200   78     200/ 25/ 26 1012.7R
WILLOUBY STN VA  0300   83     210/ 19/ 24 1011.7S
S CRANEY ISL VA  0300          190/ 12/ 17 1012.6F
CAPE HENRY BUOY  0300      74                N/A     4/ 5
1ST LANDING BUOY 0300   83     210/ 19/ 25 1012.3S
CAPE CHARLES BUO 0300      77                N/A     3/ 5   2/10
OFFSHORE WE BUOY 0300      74                N/A     5/ 5   2/ 8
64NM E OF VA BCH 0300   77 75  200/ 19/ 23 1013.9R   6/ 6   2/ 9
DUCK PIER NC     0300   81 63  210/ 19/ 25 1014.0R
44056 DUCK FRF   0300                        N/A     2/ 6
OREGON INLET NC  0300   81 85  190/ 26/ 32 1015.1R
HATTERAS NC      0300   80 82  210/ 16/ 22 1016.9R
DIAMOND SHLS NC  0300      65  230/ 23/ 31 1016.1R   6/ 6   2/ 9
CAPE LOOKOUT NC  0200   81     200/ 19/ 24 1016.3R
$$


USA.gov is the U.S. government's official web portal to all federal, state and local government web resources and services.